EW1714 Weather Reports


Display with metric or nautical units.
time (UTC)temp
F
wind
direction
speed
MPH
gust
MPH
rain 1hr
in
rain 24hr
in
rain mn
in
humidity
%
barometer
mb
20260508205004 61 264 0.0 6.0 0.00 0.00 0.00 35 1009.3
20260508204511 61 233 0.0 2.0 0.00 0.00 0.00 35 1009.2
20260508204006 62 118 0.0 4.0 0.00 0.00 0.00 34 1009.1
20260508203505 62 210 0.0 5.0 0.00 0.00 0.00 33 1009.1
20260508203012 62 200 1.0 5.0 0.00 0.00 0.00 33 1009.2
20260508202504 63 213 0.0 6.0 0.00 0.00 0.00 33 1009.2
20260508202004 63 359 0.0 6.0 0.00 0.00 0.00 33 1009.2
20260508201515 63 217 2.0 6.0 0.00 0.00 0.00 33 1009.2
20260508201007 63 222 0.0 5.0 0.00 0.00 0.00 35 1009.1
20260508200507 64 283 1.0 5.0 0.00 0.00 0.00 33 1009.1
20260508200003 64 245 0.0 8.0 0.00 0.00 0.00 31 1009.1
20260508195501 65 245 1.0 8.0 0.00 0.00 0.00 31 1009.1
20260508195002 64 216 2.0 9.0 0.00 0.00 0.00 32 1009.1
20260508194506 64 190 1.0 13.0 0.00 0.00 0.00 32 1009.0
20260508194002 63 359 2.0 13.0 0.00 0.00 0.00 32 1009.2
20260508193504 63 197 1.0 7.0 0.00 0.00 0.00 32 1009.2
20260508193010 63 243 1.0 7.0 0.00 0.00 0.00 34 1009.2
20260508192503 63 269 0.0 9.0 0.00 0.00 0.00 35 1009.3
20260508192005 63 224 2.0 9.0 0.00 0.00 0.00 33 1009.2
20260508191514 63 219 0.0 8.0 0.00 0.00 0.00 36 1009.3
20260508191006 62 281 0.0 8.0 0.00 0.00 0.00 35 1009.3
20260508190507 61 243 0.0 9.0 0.00 0.00 0.00 34 1009.2
20260508190018 61 161 0.0 9.0 0.00 0.00 0.00 33 1009.2
20260508185511 61 255 0.0 9.0 0.00 0.00 0.00 34 1009.3
20260508185009 62 271 1.0 9.0 0.00 0.00 0.00 33 1009.3
20260508184526 61 291 1.0 10.0 0.00 0.00 0.00 35 1009.4
20260508184002 61 9 2.0 10.0 0.00 0.00 0.00 35 1009.3
20260508183502 61 136 0.0 7.0 0.00 0.00 0.00 33 1009.3
20260508183009 62 359 0.0 7.0 0.00 0.00 0.00 34 1009.4
20260508182503 62 243 1.0 7.0 0.00 0.00 0.00 33 1009.3
20260508182002 62 117 1.0 7.0 0.00 0.00 0.00 33 1009.3
20260508181516 62 205 1.0 7.0 0.00 0.00 0.00 33 1009.2
20260508181003 62 293 0.0 9.0 0.00 0.00 0.00 36 1009.2
20260508180506 61 256 0.0 13.0 0.00 0.00 0.00 36 1009.2
20260508180018 62 195 2.0 13.0 0.00 0.00 0.00 35 1009.3
20260508175507 61 274 0.0 8.0 0.00 0.00 0.00 35 1009.2
20260508175010 61 188 0.0 8.0 0.00 0.00 0.00 34 1009.2
20260508174534 62 238 1.0 8.0 0.00 0.00 0.00 35 1009.2
20260508174007 61 224 0.0 8.0 0.00 0.00 0.00 37 1009.2
20260508173511 62 139 1.0 7.0 0.00 0.00 0.00 35 1009.3
20260508173026 62 204 1.0 8.0 0.00 0.00 0.00 36 1009.2
20260508172509 61 213 1.0 8.0 0.00 0.00 0.00 40 1009.2
20260508172003 60 1 0.0 5.0 0.00 0.00 0.00 40 1009.2
20260508171509 60 127 0.0 8.0 0.00 0.00 0.00 40 1009.2
20260508171002 60 175 0.0 9.0 0.00 0.00 0.00 38 1009.3
20260508170506 60 186 1.0 9.0 0.00 0.00 0.00 37 1009.3
20260508170013 60 189 0.0 7.0 0.00 0.00 0.00 38 1009.2
20260508165506 60 173 0.0 9.0 0.00 0.00 0.00 37 1009.2
20260508165004 61 184 0.0 9.0 0.00 0.00 0.00 37 1009.2
20260508164525 61 273 0.0 5.0 0.00 0.00 0.00 38 1009.3
20260508164007 61 178 0.0 4.0 0.00 0.00 0.00 38 1009.3
20260508163508 62 236 0.0 4.0 0.00 0.00 0.00 36 1009.3
20260508163023 63 128 0.0 7.0 0.00 0.00 0.00 35 1009.2
20260508162507 64 160 0.0 7.0 0.00 0.00 0.00 35 1009.3
20260508162005 65 169 2.0 6.0 0.00 0.00 0.00 34 1009.2
20260508161526 64 308 0.0 5.0 0.00 0.00 0.00 37 1009.1
20260508161010 64 132 1.0 5.0 0.00 0.00 0.00 35 1009.1
20260508160502 64 309 0.0 11.0 0.00 0.00 0.00 37 1009.3
20260508160009 64 269 1.0 11.0 0.00 0.00 0.00 40 1009.3
20260508155503 64 213 0.0 6.0 0.00 0.00 0.00 34 1009.3
20260508155003 64 204 0.0 6.0 0.00 0.00 0.00 35 1009.5
20260508154517 65 250 0.0 5.0 0.00 0.00 0.00 34 1009.6
20260508154007 65 70 0.0 5.0 0.00 0.00 0.00 35 1009.7
20260508153511 64 15 0.0 6.0 0.00 0.00 0.00 36 1009.7
20260508153021 64 184 1.0 6.0 0.00 0.00 0.00 36 1009.6
20260508152509 64 250 0.0 4.0 0.00 0.00 0.00 40 1009.7
20260508152010 63 276 1.0 8.0 0.00 0.00 0.00 36 1009.7
20260508151530 63 131 2.0 8.0 0.00 0.00 0.00 38 1009.6
20260508151009 62 197 0.0 9.0 0.00 0.00 0.00 40 1009.7
20260508150509 61 223 1.0 9.0 0.00 0.00 0.00 39 1009.7
20260508150027 61 252 0.0 7.0 0.00 0.00 0.00 38 1009.8
20260508145514 61 159 1.0 7.0 0.00 0.00 0.00 40 1009.9
20260508145009 60 167 0.0 3.0 0.00 0.00 0.00 40 1009.9
20260508144514 59 161 0.0 3.0 0.00 0.00 0.00 41 1009.9
20260508144003 58 326 0.0 3.0 0.00 0.00 0.00 43 1009.9
20260508143508 58 267 0.0 6.0 0.00 0.00 0.00 42 1010.0
20260508143018 58 169 0.0 6.0 0.00 0.00 0.00 43 1010.1
20260508142507 58 165 0.0 11.0 0.00 0.00 0.00 40 1010.2
20260508142007 58 262 1.0 11.0 0.00 0.00 0.00 41 1010.2
20260508141521 58 241 0.0 4.0 0.00 0.00 0.00 43 1010.4
20260508141011 57 122 0.0 5.0 0.00 0.00 0.00 42 1010.3
20260508140510 57 202 0.0 5.0 0.00 0.00 0.00 43 1010.3
20260508140026 57 352 0.0 4.0 0.00 0.00 0.00 47 1010.3
20260508135511 56 330 0.0 7.0 0.00 0.00 0.00 44 1010.3
20260508135013 56 97 1.0 8.0 0.00 0.00 0.00 43 1010.3
20260508134525 56 351 1.0 8.0 0.00 0.00 0.00 44 1010.3
20260508134013 56 307 1.0 7.0 0.00 0.00 0.00 42 1010.4
20260508133510 56 98 0.0 6.0 0.00 0.00 0.00 42 1010.4
20260508133017 56 223 0.0 7.0 0.00 0.00 0.00 44 1010.3
20260508132503 55 186 1.0 8.0 0.00 0.00 0.00 48 1010.2
20260508132004 54 338 0.0 8.0 0.00 0.00 0.00 47 1010.3
20260508131520 53 211 0.0 3.0 0.00 0.00 0.00 48 1010.3
20260508131008 53 3 0.0 3.0 0.00 0.00 0.00 47 1010.4
20260508130507 52 166 0.0 13.0 0.00 0.00 0.00 50 1010.3
20260508130024 52 340 0.0 13.0 0.00 0.00 0.00 52 1010.4
20260508125510 52 267 0.0 6.0 0.00 0.00 0.00 50 1010.4
20260508125012 51 359 1.0 9.0 0.00 0.00 0.00 52 1010.5
20260508124528 51 246 0.0 9.0 0.00 0.00 0.00 52 1010.4
20260508124011 50 359 0.0 3.0 0.00 0.00 0.00 54 1010.5
20260508123510 50 23 0.0 5.0 0.00 0.00 0.00 54 1010.5
20260508123029 50 327 0.0 5.0 0.00 0.00 0.00 55 1010.5
20260508122507 49 219 0.0 0.0 0.00 0.00 0.00 56 1010.5
20260508122013 49 250 0.0 0.0 0.00 0.00 0.00 58 1010.5
20260508121530 48 360 0.0 0.0 0.00 0.00 0.00 64 1010.5
20260508121004 47 356 0.0 0.0 0.00 0.00 0.00 66 1010.4
20260508120506 46 279 0.0 0.0 0.00 0.00 0.00 65 1010.5
20260508120021 46 278 0.0 0.0 0.00 0.00 0.00 67 1010.6
20260508115508 45 278 0.0 0.0 0.00 0.00 0.00 68 1010.6
20260508115008 44 278 0.0 0.0 0.00 0.00 0.00 71 1010.5
20260508114523 43 229 0.0 0.0 0.00 0.00 0.00 75 1010.4
20260508114005 42 229 0.0 0.0 0.00 0.00 0.00 78 1010.4
20260508113503 42 161 0.0 0.0 0.00 0.00 0.00 82 1010.5
20260508113009 42 161 0.0 0.0 0.00 0.00 0.00 83 1010.4
20260508112504 41 161 0.0 0.0 0.00 0.00 0.00 84 1010.4
20260508112006 41 161 0.0 0.0 0.00 0.00 0.00 86 1010.4
20260508111514 40 161 0.0 0.0 0.00 0.00 0.00 86 1010.4
20260508111004 40 161 0.0 0.0 0.00 0.00 0.00 87 1010.4
20260508110501 39 161 0.0 0.0 0.00 0.00 0.00 87 1010.3
20260508110002 39 161 0.0 0.0 0.00 0.00 0.00 87 1010.2
20260508105503 39 161 0.0 0.0 0.00 0.00 0.00 87 1010.1
20260508105002 39 161 0.0 0.0 0.00 0.00 0.00 88 1010.1
20260508104507 38 161 0.0 0.0 0.00 0.00 0.00 90 1010.1
20260508104004 38 161 0.0 0.0 0.00 0.00 0.00 89 1010.2
20260508103504 37 161 0.0 0.0 0.00 0.00 0.00 89 1010.2
20260508103006 37 161 0.0 0.0 0.00 0.00 0.00 89 1010.1
20260508102502 37 161 0.0 0.0 0.00 0.00 0.00 88 1010.0
20260508102003 37 161 0.0 0.0 0.00 0.00 0.00 88 1009.9
20260508101511 37 161 0.0 0.0 0.00 0.00 0.00 87 1009.9
20260508101004 37 161 0.0 0.0 0.00 0.00 0.00 87 1009.8
20260508100503 37 161 0.0 0.0 0.00 0.00 0.00 88 1009.7
20260508100015 37 161 0.0 0.0 0.00 0.00 0.00 88 1009.7
20260508095507 37 161 0.0 0.0 0.00 0.00 0.00 88 1009.8
20260508095006 37 161 0.0 0.0 0.00 0.00 0.00 88 1009.7
20260508094502 37 161 0.0 0.0 0.00 0.00 0.00 88 1009.6
20260508094003 37 161 0.0 0.0 0.00 0.00 0.00 88 1009.5
20260508093503 37 161 0.0 0.0 0.00 0.00 0.00 88 1009.3
20260508093003 37 161 0.0 0.0 0.00 0.00 0.00 88 1009.4
20260508092502 37 161 0.0 0.0 0.00 0.00 0.00 88 1009.3
20260508092005 37 161 0.0 0.0 0.00 0.00 0.00 87 1009.3
20260508091506 37 161 0.0 0.0 0.00 0.00 0.00 87 1009.4
20260508091003 37 161 0.0 0.0 0.00 0.00 0.00 87 1009.4
20260508090505 37 161 0.0 0.0 0.00 0.00 0.00 87 1009.4
20260508090015 37 161 0.0 0.0 0.00 0.00 0.00 87 1009.4
20260508085503 37 161 0.0 0.0 0.00 0.00 0.00 87 1009.4
20260508085004 37 161 0.0 0.0 0.00 0.00 0.00 86 1009.4
20260508084514 37 161 0.0 0.0 0.00 0.00 0.00 85 1009.3
20260508084006 37 161 0.0 0.0 0.00 0.00 0.00 85 1009.4
20260508083509 38 161 0.0 0.0 0.00 0.00 0.00 85 1009.4
20260508083020 38 161 0.0 0.0 0.00 0.00 0.00 84 1009.4
20260508082503 38 161 0.0 0.0 0.00 0.00 0.00 84 1009.3
20260508082003 38 161 0.0 0.0 0.00 0.00 0.00 85 1009.2
20260508081503 38 161 0.0 0.0 0.00 0.00 0.00 85 1009.1
20260508081002 38 161 0.0 0.0 0.00 0.00 0.00 85 1009.1
20260508080504 38 161 0.0 0.0 0.00 0.00 0.00 84 1009.1
20260508080007 38 161 0.0 0.0 0.00 0.00 0.00 83 1009.1
20260508075505 39 161 0.0 0.0 0.00 0.01 0.00 83 1008.9
20260508075006 39 161 0.0 0.0 0.00 0.01 0.00 82 1008.7
20260508074510 39 161 0.0 0.0 0.00 0.01 0.00 83 1008.6
20260508074003 39 161 0.0 0.0 0.00 0.01 0.00 83 1008.6
20260508073503 40 161 0.0 0.0 0.00 0.01 0.00 83 1008.4
20260508073016 40 161 0.0 0.0 0.00 0.01 0.00 82 1008.3
20260508072506 40 161 0.0 0.0 0.00 0.01 0.00 82 1008.3
20260508072006 40 161 0.0 0.0 0.00 0.01 0.00 82 1008.3
20260508071521 40 161 0.0 0.0 0.00 0.01 0.00 82 1008.2
20260508071006 40 161 0.0 0.0 0.00 0.01 0.00 81 1008.2
20260508070506 40 161 0.0 0.0 0.00 0.01 0.00 81 1008.2
20260508070018 40 161 0.0 0.0 0.00 0.01 0.00 81 1008.2
20260508065505 41 161 0.0 0.0 0.00 0.01 0.00 80 1008.2
20260508065007 41 161 0.0 0.0 0.00 0.01 0.00 80 1008.2
20260508064508 41 161 0.0 0.0 0.00 0.01 0.00 79 1008.2
20260508064010 41 161 0.0 0.0 0.00 0.01 0.00 79 1008.3
20260508063505 41 161 0.0 0.0 0.00 0.01 0.00 79 1008.4
20260508063014 41 161 0.0 0.0 0.00 0.01 0.00 78 1008.3
20260508062504 41 161 0.0 0.0 0.00 0.01 0.00 78 1008.3
20260508062006 41 161 0.0 0.0 0.00 0.01 0.00 78 1008.3
20260508061519 42 161 0.0 0.0 0.00 0.01 0.00 77 1008.4
20260508061007 42 161 0.0 0.0 0.00 0.01 0.00 76 1008.4
20260508060512 42 161 0.0 0.0 0.00 0.01 0.00 76 1008.5
20260508060023 42 161 0.0 0.0 0.00 0.01 0.00 76 1008.5
20260508055506 43 161 0.0 0.0 0.00 0.01 0.00 76 1008.5
20260508055007 43 161 0.0 0.0 0.00 0.01 0.00 76 1008.7
20260508054509 43 161 0.0 0.0 0.00 0.01 0.00 75 1008.7
20260508054003 43 161 0.0 0.0 0.00 0.01 0.00 74 1008.7
20260508053504 43 161 0.0 0.0 0.00 0.01 0.00 74 1008.7
20260508053015 44 161 0.0 0.0 0.00 0.01 0.00 73 1008.7
20260508052507 44 161 0.0 0.0 0.00 0.01 0.00 72 1008.7
20260508052006 44 161 0.0 0.0 0.00 0.01 0.00 72 1008.8
20260508051516 44 161 0.0 0.0 0.00 0.01 0.00 71 1008.8
20260508051007 45 161 0.0 0.0 0.00 0.01 0.00 70 1009.0
20260508050508 45 161 0.0 0.0 0.00 0.01 0.00 70 1009.0
20260508050022 45 161 0.0 0.0 0.00 0.01 0.00 70 1009.0
20260508045507 45 161 0.0 0.0 0.00 0.01 0.00 69 1009.0
20260508045007 46 161 0.0 0.0 0.00 0.01 0.00 70 1009.0
20260508044526 46 161 0.0 0.0 0.00 0.01 0.00 67 1009.1
20260508044008 46 161 0.0 0.0 0.00 0.01 0.00 66 1009.1
20260508043507 47 161 0.0 0.0 0.00 0.01 0.00 67 1009.2
20260508043048 47 161 0.0 0.0 0.00 0.01 0.00 67 1009.2
20260508042506 47 161 0.0 0.0 0.00 0.01 0.00 65 1009.2
20260508042004 47 161 0.0 0.0 0.00 0.01 0.00 66 1009.2
20260508041512 48 161 0.0 0.0 0.00 0.01 0.00 62 1009.1
20260508041007 48 161 0.0 0.0 0.00 0.01 0.00 62 1009.1
20260508040504 49 161 0.0 0.0 0.00 0.01 0.00 61 1009.1
20260508040023 49 161 0.0 0.0 0.00 0.01 0.00 62 1009.1
20260508035504 49 161 0.0 0.0 0.00 0.01 0.01 60 1009.1
20260508035007 49 161 0.0 0.0 0.00 0.01 0.01 60 1009.1
20260508034522 50 161 0.0 0.0 0.00 0.01 0.01 57 1009.1
20260508034010 50 161 0.0 0.0 0.00 0.01 0.01 56 1009.1
20260508033510 50 161 0.0 0.0 0.00 0.01 0.01 55 1009.1
20260508033024 50 161 0.0 0.0 0.00 0.01 0.01 56 1009.1
20260508032507 50 161 0.0 0.0 0.00 0.01 0.01 54 1009.1
20260508032009 50 161 0.0 0.0 0.00 0.01 0.01 54 1009.1
20260508031527 50 160 0.0 0.0 0.00 0.01 0.01 54 1009.0
20260508031013 50 161 0.0 0.0 0.00 0.01 0.01 53 1008.9
20260508030504 50 291 0.0 0.0 0.00 0.01 0.01 54 1008.9
20260508030028 50 291 0.0 0.0 0.00 0.01 0.01 55 1009.0
20260508025503 50 281 0.0 0.0 0.00 0.01 0.01 53 1008.9
20260508025004 50 281 0.0 0.0 0.00 0.01 0.01 54 1008.9
20260508024518 50 281 0.0 0.0 0.00 0.01 0.01 54 1008.9
20260508024003 50 281 0.0 0.0 0.00 0.01 0.01 53 1008.8
20260508023503 50 295 0.0 0.0 0.00 0.01 0.01 53 1008.8
20260508023005 50 304 0.0 0.0 0.00 0.01 0.01 54 1008.8
20260508022503 50 304 0.0 0.0 0.00 0.01 0.01 54 1008.7
20260508022004 50 304 0.0 0.0 0.00 0.01 0.01 55 1008.8
20260508021505 50 304 0.0 0.0 0.00 0.01 0.01 55 1008.9
20260508021005 50 304 0.0 0.0 0.00 0.01 0.01 54 1008.9
20260508020504 50 304 0.0 0.0 0.00 0.01 0.01 54 1008.8
20260508020010 51 304 0.0 0.0 0.00 0.01 0.01 54 1008.8
20260508015504 51 304 0.0 0.0 0.00 0.01 0.01 53 1008.8
20260508015007 51 304 0.0 0.0 0.00 0.01 0.01 52 1008.8
20260508014514 51 304 0.0 0.0 0.00 0.01 0.01 53 1008.7
20260508014008 51 304 0.0 0.0 0.00 0.01 0.01 51 1008.4
20260508013505 51 304 0.0 0.0 0.00 0.01 0.01 51 1008.3
20260508013003 51 293 0.0 0.0 0.00 0.01 0.01 52 1008.2
20260508012503 52 292 0.0 0.0 0.00 0.01 0.01 50 1008.1
20260508012004 52 295 0.0 0.0 0.00 0.01 0.01 49 1008.1
20260508011506 52 295 0.0 0.0 0.00 0.01 0.01 50 1008.0
20260508011003 53 295 0.0 0.0 0.00 0.01 0.01 48 1008.0
20260508010503 53 295 0.0 0.0 0.00 0.01 0.01 47 1007.9
20260508010013 53 295 0.0 0.0 0.00 0.01 0.01 48 1007.9
20260508005505 54 295 0.0 0.0 0.00 0.01 0.01 44 1007.8
20260508005003 54 295 0.0 1.0 0.00 0.01 0.01 44 1007.8
20260508004513 54 295 0.0 1.0 0.00 0.01 0.01 44 1007.7
20260508004009 54 205 0.0 0.0 0.00 0.01 0.01 45 1007.6
20260508003506 54 205 0.0 0.0 0.00 0.01 0.01 43 1007.6
20260508003016 55 207 0.0 0.0 0.00 0.01 0.01 43 1007.6
20260508002507 55 176 0.0 0.0 0.00 0.01 0.01 43 1007.6
20260508002009 55 220 0.0 0.0 0.00 0.01 0.01 43 1007.6
20260508001519 55 220 0.0 0.0 0.00 0.01 0.01 42 1007.5
20260508001004 56 220 0.0 0.0 0.00 0.01 0.01 42 1007.5
20260508000507 56 221 0.0 0.0 0.00 0.01 0.01 42 1007.4
20260508000004 56 221 0.0 3.0 0.00 0.01 0.01 42 1007.4
20260507235504 56 131 0.0 3.0 0.00 0.01 0.01 41 1007.3
20260507235002 57 174 0.0 0.0 0.00 0.01 0.01 41 1007.2
20260507234510 57 217 0.0 0.0 0.00 0.01 0.01 40 1007.1
20260507234002 57 215 0.0 1.0 0.00 0.01 0.01 41 1007.0
20260507233504 57 215 0.0 1.0 0.00 0.01 0.01 39 1007.0
20260507233014 58 234 0.0 0.0 0.00 0.02 0.01 38 1006.9
20260507232508 58 191 0.0 4.0 0.00 0.02 0.01 39 1006.9
20260507232010 58 295 0.0 4.0 0.00 0.02 0.01 39 1006.9
20260507231524 58 217 0.0 1.0 0.00 0.02 0.01 37 1006.8
20260507231007 59 117 0.0 1.0 0.00 0.02 0.01 37 1006.8
20260507230508 59 207 0.0 1.0 0.00 0.02 0.01 37 1006.8
20260507230024 59 81 0.0 0.0 0.00 0.04 0.01 38 1006.7
20260507225505 59 268 0.0 7.0 0.00 0.05 0.01 37 1006.7
20260507225004 59 221 0.0 7.0 0.00 0.06 0.01 36 1006.7
20260507224507 60 290 0.0 9.0 0.00 0.06 0.01 37 1006.7
20260507224003 60 203 0.0 9.0 0.00 0.07 0.01 35 1006.7
20260507223504 60 1 0.0 9.0 0.00 0.08 0.01 37 1006.6
20260507223011 60 290 0.0 5.0 0.00 0.08 0.01 34 1006.5
20260507222502 60 134 0.0 7.0 0.00 0.08 0.01 34 1006.4
20260507222011 60 275 2.0 7.0 0.00 0.08 0.01 34 1006.5
20260507221516 61 197 0.0 4.0 0.00 0.08 0.01 35 1006.4
20260507221009 61 221 0.0 6.0 0.00 0.09 0.01 34 1006.4
20260507220508 61 6 0.0 7.0 0.00 0.09 0.01 34 1006.3
20260507220021 61 217 0.0 7.0 0.00 0.09 0.01 35 1006.4
20260507215508 61 15 0.0 6.0 0.00 0.09 0.01 34 1006.3
20260507215008 61 280 1.0 9.0 0.00 0.10 0.01 33 1006.2
20260507214526 62 292 2.0 9.0 0.00 0.10 0.01 34 1006.2
20260507214007 62 165 0.0 7.0 0.00 0.11 0.01 34 1006.2
20260507213504 62 232 0.0 9.0 0.00 0.12 0.01 33 1006.3
20260507213010 62 196 2.0 9.0 0.00 0.12 0.01 35 1006.2
20260507212504 63 360 0.0 12.0 0.00 0.12 0.01 33 1006.2
20260507212003 63 165 3.0 12.0 0.00 0.13 0.01 34 1006.3
20260507211513 63 356 0.0 11.0 0.00 0.13 0.01 34 1006.2
20260507211005 63 359 1.0 11.0 0.00 0.13 0.01 33 1006.1
20260507210507 64 278 1.0 9.0 0.00 0.13 0.01 32 1006.2
20260507210019 64 190 1.0 9.0 0.00 0.14 0.01 32 1006.2
20260507205507 65 333 0.0 8.0 0.00 0.16 0.01 33 1006.2